sat.trackr.live / text

‹ back to catalog

2024-199AS

NORAD 61775 · 2024-199AS

PAYLOAD ACTIVE UNKNOWN

§ Identity

Operator
Country
TBD
Launch date
2024-11-04
Launch site
VOSTO
Launch vehicle
Mass (kg)
RCS (m²)

External: N2YO · Heavens-Above · Gunter

§ Orbital elements

Epoch: 2026-09-22T21:37:19.873344Z

Period
93.07 min
Inclination
97.2814°
Eccentricity
0.0011644
Mean motion
15.47145968 rev/d
Perigee alt
417.2 km
Apogee alt
433.0 km
Semi-major
6,803.2 km
B*
2.5054e-4
RAAN
138.7061°
Arg perigee
284.7557°
Mean anomaly
75.2402°
Rev number
14,926

§ Raw data

2024-199AS1 61775U 24199AS  26265.90092446  .00012657  00000+0  25054-3 0  99952 61775  97.2814 138.7061 0011644 284.7557  75.2402 15.47145968149261

JSON: /api/v1/satellites/61775 · /tle

For live sub-satellite position, see the globe view (requires WebGL).

§ Visibility from observer

Set your observer location to see the next 7 days of passes ≥ 10°. The values pass through the URL so the page stays shareable.

No JS? Fill the form by hand. The geolocation button needs JavaScript.